Time,TemperatureF,DewpointF,PressureIn,WindDirection,WindDirectionDegrees,WindSpeedMPH,WindSpeedGustMPH,Humidity,HourlyPrecipIn,Conditions,Clouds,dailyrainin,SoftwareType,DateUTC
2013-03-31 00:00:00,52.7,50.1,30.02,South,185,0.0,5.0,91,0.00,,,0.00,Wunderground v.1.15,2013-03-31 07:00:00,
2013-03-31 00:05:00,53.1,50.2,30.02,South,185,0.0,5.0,90,0.00,,,0.00,Wunderground v.1.15,2013-03-31 07:05:00,
2013-03-31 00:10:00,53.2,50.0,30.02,South,190,0.0,5.0,89,0.00,,,0.00,Wunderground v.1.15,2013-03-31 07:10:00,
2013-03-31 00:20:00,53.2,49.7,30.02,South,191,0.0,5.0,88,0.00,,,0.00,Wunderground v.1.15,2013-03-31 07:20:00,
2013-03-31 00:25:00,53.1,49.6,30.02,South,190,0.0,5.0,88,0.00,,,0.00,Wunderground v.1.15,2013-03-31 07:25:00,
2013-03-31 00:30:00,53.0,49.8,30.02,South,191,0.0,5.0,89,0.00,,,0.00,Wunderground v.1.15,2013-03-31 07:30:00,
2013-03-31 00:40:00,53.2,49.7,30.02,SSW,196,0.0,5.0,88,0.00,,,0.00,Wunderground v.1.15,2013-03-31 07:40:00,
2013-03-31 00:45:00,53.4,49.9,30.02,SSW,195,0.0,5.0,88,0.00,,,0.00,Wunderground v.1.15,2013-03-31 07:45:00,
2013-03-31 00:50:00,53.6,50.1,30.02,SSW,195,0.0,5.0,88,0.00,,,0.00,Wunderground v.1.15,2013-03-31 07:50:00,
2013-03-31 01:00:00,53.5,49.7,30.02,SSW,196,0.0,5.0,87,0.00,,,0.00,Wunderground v.1.15,2013-03-31 08:00:00,
2013-03-31 01:05:00,53.4,49.9,30.02,SW,214,0.0,5.0,88,0.00,,,0.00,Wunderground v.1.15,2013-03-31 08:05:00,
2013-03-31 01:10:00,53.5,50.0,30.01,SSW,204,0.0,5.0,88,0.00,,,0.00,Wunderground v.1.15,2013-03-31 08:10:00,
2013-03-31 01:20:00,53.5,50.0,30.01,SSW,204,0.0,5.0,88,0.00,,,0.00,Wunderground v.1.15,2013-03-31 08:20:00,
2013-03-31 01:25:00,53.4,49.9,30.01,SSW,204,0.0,5.0,88,0.00,,,0.00,Wunderground v.1.15,2013-03-31 08:25:00,
2013-03-31 01:30:00,53.4,49.9,30.01,SSW,204,0.0,5.0,88,0.00,,,0.00,Wunderground v.1.15,2013-03-31 08:30:00,
2013-03-31 01:40:00,53.3,49.8,30.01,SSW,204,0.0,5.0,88,0.00,,,0.00,Wunderground v.1.15,2013-03-31 08:40:00,
2013-03-31 01:45:00,53.3,49.8,30.01,SSW,204,0.0,5.0,88,0.00,,,0.00,Wunderground v.1.15,2013-03-31 08:45:00,
2013-03-31 01:50:00,53.5,50.0,30.01,SSW,195,0.0,5.0,88,0.00,,,0.00,Wunderground v.1.15,2013-03-31 08:50:00,
2013-03-31 02:00:00,53.8,50.0,30.01,SSW,195,0.0,5.0,87,0.00,,,0.00,Wunderground v.1.15,2013-03-31 09:00:00,
2013-03-31 02:05:00,53.9,50.1,30.01,SSW,195,0.0,5.0,87,0.00,,,0.00,Wunderground v.1.15,2013-03-31 09:05:00,
2013-03-31 02:10:00,53.6,50.1,30.01,SSW,195,0.0,5.0,88,0.00,,,0.00,Wunderground v.1.15,2013-03-31 09:10:00,
2013-03-31 02:20:00,53.2,50.0,30.01,SSW,195,0.0,5.0,89,0.00,,,0.00,Wunderground v.1.15,2013-03-31 09:20:00,
2013-03-31 02:25:00,53.0,49.8,30.00,SSW,195,0.0,5.0,89,0.00,,,0.00,Wunderground v.1.15,2013-03-31 09:25:00,
2013-03-31 02:30:00,52.8,49.6,30.01,SSW,195,0.0,5.0,89,0.00,,,0.00,Wunderground v.1.15,2013-03-31 09:30:00,
2013-03-31 02:40:00,52.5,49.7,30.00,SSW,195,0.0,5.0,90,0.00,,,0.00,Wunderground v.1.15,2013-03-31 09:40:00,
2013-03-31 02:45:00,52.3,49.5,30.00,SSW,195,0.0,5.0,90,0.00,,,0.00,Wunderground v.1.15,2013-03-31 09:45:00,
2013-03-31 02:50:00,52.2,49.7,30.01,SSW,195,0.0,5.0,91,0.00,,,0.00,Wunderground v.1.15,2013-03-31 09:50:00,
2013-03-31 02:55:00,52.1,49.6,30.01,SSW,195,0.0,5.0,91,0.00,,,0.00,Wunderground v.1.15,2013-03-31 09:55:00,
2013-03-31 03:05:00,52.4,49.8,30.01,SSW,195,0.0,5.0,91,0.00,,,0.00,Wunderground v.1.15,2013-03-31 10:05:00,
2013-03-31 03:10:00,52.6,50.0,30.01,SSE,154,1.0,1.0,91,0.00,,,0.00,Wunderground v.1.15,2013-03-31 10:10:00,
2013-03-31 03:20:00,52.4,49.8,30.01,SSE,160,0.0,5.0,91,0.00,,,0.00,Wunderground v.1.15,2013-03-31 10:20:00,
2013-03-31 03:25:00,52.3,50.0,30.01,SSE,160,0.0,5.0,92,0.00,,,0.00,Wunderground v.1.15,2013-03-31 10:25:00,
2013-03-31 03:30:00,52.3,50.0,30.01,SSE,160,0.0,5.0,92,0.00,,,0.00,Wunderground v.1.15,2013-03-31 10:30:00,
2013-03-31 03:40:00,52.3,50.0,30.01,East,94,0.0,5.0,92,0.00,,,0.00,Wunderground v.1.15,2013-03-31 10:40:00,
2013-03-31 03:50:00,52.3,50.0,30.01,East,86,0.0,5.0,92,0.00,,,0.00,Wunderground v.1.15,2013-03-31 10:50:00,
2013-03-31 03:55:00,52.2,49.9,30.01,NNE,27,1.0,5.0,92,0.00,,,0.00,Wunderground v.1.15,2013-03-31 10:55:00,
2013-03-31 04:00:00,52.0,49.7,30.00,NNE,27,1.0,5.0,92,0.00,,,0.00,Wunderground v.1.15,2013-03-31 11:00:00,
2013-03-31 04:10:00,51.7,49.7,30.00,NNE,27,0.0,5.0,93,0.00,,,0.00,Wunderground v.1.15,2013-03-31 11:10:00,
2013-03-31 04:15:00,51.7,49.7,30.00,NNE,27,0.0,5.0,93,0.00,,,0.00,Wunderground v.1.15,2013-03-31 11:15:00,
2013-03-31 04:25:00,51.7,49.7,30.00,NNE,24,0.0,5.0,93,0.00,,,0.00,Wunderground v.1.15,2013-03-31 11:25:00,
2013-03-31 04:30:00,51.7,50.0,30.00,NNE,24,0.0,5.0,94,0.00,,,0.00,Wunderground v.1.15,2013-03-31 11:30:00,
2013-03-31 04:35:00,51.8,49.8,30.00,NNE,24,0.0,5.0,93,0.00,,,0.00,Wunderground v.1.15,2013-03-31 11:35:00,
2013-03-31 04:40:00,51.9,49.9,30.00,NNE,24,0.0,5.0,93,0.00,,,0.00,Wunderground v.1.15,2013-03-31 11:40:00,
2013-03-31 04:50:00,52.2,50.2,29.99,NNE,24,0.0,5.0,93,0.00,,,0.00,Wunderground v.1.15,2013-03-31 11:50:00,
2013-03-31 04:55:00,52.3,50.3,29.99,NNE,24,0.0,5.0,93,0.00,,,0.00,Wunderground v.1.15,2013-03-31 11:55:00,
2013-03-31 05:00:00,52.4,50.1,29.99,NNE,24,0.0,5.0,92,0.00,,,0.00,Wunderground v.1.15,2013-03-31 12:00:00,
2013-03-31 05:10:00,52.5,50.2,29.98,NNE,24,0.0,5.0,92,0.00,,,0.00,Wunderground v.1.15,2013-03-31 12:10:00,
2013-03-31 05:15:00,52.6,50.3,29.98,NNE,24,0.0,5.0,92,0.00,,,0.00,Wunderground v.1.15,2013-03-31 12:15:00,
2013-03-31 05:20:00,52.7,50.4,29.99,East,100,0.0,5.0,92,0.00,,,0.00,Wunderground v.1.15,2013-03-31 12:20:00,
2013-03-31 05:25:00,52.8,50.5,29.98,SSW,201,0.0,5.0,92,0.00,,,0.00,Wunderground v.1.15,2013-03-31 12:25:00,
2013-03-31 05:35:00,53.1,50.5,29.98,South,191,0.0,5.0,91,0.00,,,0.00,Wunderground v.1.15,2013-03-31 12:35:00,
2013-03-31 05:40:00,53.3,50.4,29.99,South,185,1.0,5.0,90,0.00,,,0.00,Wunderground v.1.15,2013-03-31 12:40:00,
2013-03-31 05:45:00,53.4,50.5,29.99,South,184,1.0,5.0,90,0.00,,,0.00,Wunderground v.1.15,2013-03-31 12:45:00,
2013-03-31 05:55:00,53.2,50.6,29.98,South,184,0.0,5.0,91,0.00,,,0.00,Wunderground v.1.15,2013-03-31 12:55:00,
2013-03-31 06:00:00,53.2,50.6,29.98,South,184,0.0,5.0,91,0.00,,,0.00,Wunderground v.1.15,2013-03-31 13:00:00,
2013-03-31 06:05:00,53.1,50.5,29.98,NE,52,0.0,5.0,91,0.00,,,0.00,Wunderground v.1.15,2013-03-31 13:05:00,
2013-03-31 06:15:00,52.2,49.9,29.98,NNE,24,1.0,5.0,92,0.00,,,0.00,Wunderground v.1.15,2013-03-31 13:15:00,
2013-03-31 06:20:00,51.9,49.6,29.98,NNE,25,1.0,5.0,92,0.00,,,0.00,Wunderground v.1.15,2013-03-31 13:20:00,
2013-03-31 06:25:00,51.7,49.7,29.98,NNE,25,1.0,5.0,93,0.00,,,0.00,Wunderground v.1.15,2013-03-31 13:25:00,
2013-03-31 06:35:00,51.5,49.8,29.98,NNE,25,0.0,5.0,94,0.00,,,0.00,Wunderground v.1.15,2013-03-31 13:35:00,
2013-03-31 06:40:00,51.6,49.9,29.98,NNE,24,0.0,5.0,94,0.00,,,0.00,Wunderground v.1.15,2013-03-31 13:40:00,
2013-03-31 06:45:00,51.5,49.8,29.98,NNE,24,0.0,5.0,94,0.00,,,0.00,Wunderground v.1.15,2013-03-31 13:45:00,
2013-03-31 06:55:00,51.3,49.3,29.98,NNE,24,0.0,5.0,93,0.00,,,0.00,Wunderground v.1.15,2013-03-31 13:55:00,
2013-03-31 07:00:00,51.2,49.2,29.98,NNE,24,0.0,5.0,93,0.00,,,0.00,Wunderground v.1.15,2013-03-31 14:00:00,
2013-03-31 07:05:00,51.2,49.5,29.98,NNE,24,0.0,5.0,94,0.00,,,0.00,Wunderground v.1.15,2013-03-31 14:05:00,
2013-03-31 07:10:00,51.1,49.4,29.98,NNE,24,0.0,5.0,94,0.00,,,0.00,Wunderground v.1.15,2013-03-31 14:10:00,
2013-03-31 07:20:00,51.1,49.4,29.98,NNE,24,0.0,5.0,94,0.00,,,0.00,Wunderground v.1.15,2013-03-31 14:20:00,
2013-03-31 07:25:00,51.1,49.7,29.98,NNE,24,0.0,5.0,95,0.00,,,0.00,Wunderground v.1.15,2013-03-31 14:25:00,
2013-03-31 07:35:00,51.2,49.8,29.99,NNE,27,0.0,5.0,95,0.00,,,0.00,Wunderground v.1.15,2013-03-31 14:35:00,
2013-03-31 07:40:00,51.3,49.9,29.98,NNE,27,0.0,5.0,95,0.00,,,0.00,Wunderground v.1.15,2013-03-31 14:40:00,
2013-03-31 07:45:00,51.4,50.0,29.98,NNE,27,0.0,5.0,95,0.00,,,0.00,Wunderground v.1.15,2013-03-31 14:45:00,
2013-03-31 07:55:00,51.5,50.1,29.99,NNE,27,0.0,5.0,95,0.00,,,0.00,Wunderground v.1.15,2013-03-31 14:55:00,
2013-03-31 08:00:00,51.6,50.2,29.99,NNE,27,0.0,5.0,95,0.00,,,0.00,Wunderground v.1.15,2013-03-31 15:00:00,
2013-03-31 08:10:00,51.9,50.5,29.99,NNE,27,0.0,5.0,95,0.00,,,0.00,Wunderground v.1.15,2013-03-31 15:10:00,
2013-03-31 08:15:00,52.1,50.7,29.99,NNE,27,0.0,5.0,95,0.00,,,0.00,Wunderground v.1.15,2013-03-31 15:15:00,
2013-03-31 08:20:00,52.3,50.9,29.99,NNE,27,0.0,5.0,95,0.00,,,0.00,Wunderground v.1.15,2013-03-31 15:20:00,
2013-03-31 08:25:00,52.5,51.1,29.99,NNE,27,0.0,5.0,95,0.00,,,0.00,Wunderground v.1.15,2013-03-31 15:25:00,
2013-03-31 08:35:00,52.9,51.2,29.99,NNE,27,0.0,5.0,94,0.00,,,0.00,Wunderground v.1.15,2013-03-31 15:35:00,
2013-03-31 08:40:00,53.0,51.3,29.99,NNE,27,0.0,5.0,94,0.00,,,0.00,Wunderground v.1.15,2013-03-31 15:40:00,
2013-03-31 08:45:00,53.3,51.6,29.99,NNE,27,0.0,5.0,94,0.00,,,0.00,Wunderground v.1.15,2013-03-31 15:45:00,
2013-03-31 08:50:00,53.4,51.4,29.99,NNE,27,0.0,5.0,93,0.00,,,0.00,Wunderground v.1.15,2013-03-31 15:50:00,
2013-03-31 09:00:00,53.5,51.2,29.99,NNE,27,0.0,5.0,92,0.00,,,0.00,Wunderground v.1.15,2013-03-31 16:00:00,
2013-03-31 09:05:00,53.5,51.2,29.99,NNE,27,0.0,5.0,92,0.00,,,0.00,Wunderground v.1.15,2013-03-31 16:05:00,
2013-03-31 09:15:00,53.7,51.7,29.99,ENE,67,0.0,5.0,93,0.00,,,0.00,Wunderground v.1.15,2013-03-31 16:15:00,
2013-03-31 09:20:00,54.0,51.7,29.99,South,174,0.0,5.0,92,0.00,,,0.00,Wunderground v.1.15,2013-03-31 16:20:00,
2013-03-31 09:25:00,54.2,51.9,29.99,SSE,160,1.0,5.0,92,0.00,,,0.00,Wunderground v.1.15,2013-03-31 16:25:00,
2013-03-31 09:30:00,54.4,52.1,29.99,SSE,160,1.0,1.0,92,0.00,,,0.00,Wunderground v.1.15,2013-03-31 16:30:00,
2013-03-31 09:40:00,55.0,52.4,29.99,SSE,160,0.0,5.0,91,0.00,,,0.00,Wunderground v.1.15,2013-03-31 16:40:00,
2013-03-31 09:45:00,55.3,52.7,29.99,SSE,160,0.0,5.0,91,0.00,,,0.00,Wunderground v.1.15,2013-03-31 16:45:00,
2013-03-31 09:50:00,55.7,52.5,30.00,West,265,0.0,5.0,89,0.00,,,0.00,Wunderground v.1.15,2013-03-31 16:50:00,
2013-03-31 10:00:00,56.4,52.9,30.00,NNE,17,0.0,5.0,88,0.00,,,0.00,Wunderground v.1.15,2013-03-31 17:00:00,
2013-03-31 10:05:00,56.7,52.6,30.00,SSE,156,0.0,5.0,86,0.00,,,0.00,Wunderground v.1.15,2013-03-31 17:05:00,
2013-03-31 10:10:00,56.8,53.0,30.00,SSE,165,1.0,5.0,87,0.00,,,0.00,Wunderground v.1.15,2013-03-31 17:10:00,
2013-03-31 10:20:00,56.7,52.6,30.00,SSE,154,0.0,5.0,86,0.00,,,0.00,Wunderground v.1.15,2013-03-31 17:20:00,
2013-03-31 10:25:00,56.9,52.8,30.00,SSE,154,0.0,5.0,86,0.00,,,0.00,Wunderground v.1.15,2013-03-31 17:25:00,
2013-03-31 10:30:00,57.1,53.0,30.00,North,4,0.0,5.0,86,0.00,,,0.00,Wunderground v.1.15,2013-03-31 17:30:00,
2013-03-31 10:40:00,57.4,53.2,30.00,NNE,29,1.0,5.0,86,0.00,,,0.00,Wunderground v.1.15,2013-03-31 17:40:00,
2013-03-31 10:45:00,57.5,53.0,30.01,NE,51,1.0,5.0,85,0.00,,,0.00,Wunderground v.1.15,2013-03-31 17:45:00,
2013-03-31 10:50:00,57.8,53.0,30.01,North,354,0.0,5.0,84,0.00,,,0.00,Wunderground v.1.15,2013-03-31 17:50:00,
2013-03-31 11:00:00,58.1,52.6,30.01,SW,216,1.0,5.0,82,0.00,,,0.00,Wunderground v.1.15,2013-03-31 18:00:00,
2013-03-31 11:05:00,57.9,52.4,30.02,WNW,299,1.0,5.0,82,0.00,,,0.00,Wunderground v.1.15,2013-03-31 18:05:00,
2013-03-31 11:10:00,57.7,52.6,30.02,West,280,1.0,1.0,83,0.00,,,0.00,Wunderground v.1.15,2013-03-31 18:10:00,
2013-03-31 11:20:00,57.6,52.8,30.02,WNW,291,1.0,1.0,84,0.00,,,0.00,Wunderground v.1.15,2013-03-31 18:20:00,
2013-03-31 11:25:00,57.6,52.8,30.02,NNE,32,0.0,2.0,84,0.00,,,0.00,Wunderground v.1.15,2013-03-31 18:25:00,
2013-03-31 11:30:00,57.7,52.9,30.02,NE,41,1.0,5.0,84,0.00,,,0.00,Wunderground v.1.15,2013-03-31 18:30:00,
2013-03-31 11:35:00,58.0,52.9,30.02,NE,50,1.0,5.0,83,0.00,,,0.00,Wunderground v.1.15,2013-03-31 18:35:00,
2013-03-31 11:45:00,58.4,52.6,30.02,West,276,1.0,5.0,81,0.00,,,0.00,Wunderground v.1.15,2013-03-31 18:45:00,
2013-03-31 11:50:00,58.5,52.7,30.02,NNE,31,1.0,1.0,81,0.00,,,0.00,Wunderground v.1.15,2013-03-31 18:50:00,
2013-03-31 11:55:00,58.5,52.7,30.03,NNW,336,1.0,2.0,81,0.00,,,0.00,Wunderground v.1.15,2013-03-31 18:55:00,
2013-03-31 12:00:00,58.2,52.7,30.03,SSE,156,2.0,2.0,82,0.00,,,0.00,Wunderground v.1.15,2013-03-31 19:00:00,
2013-03-31 12:10:00,58.0,52.9,30.03,WNW,285,1.0,1.0,83,0.00,,,0.00,Wunderground v.1.15,2013-03-31 19:10:00,
2013-03-31 12:15:00,57.8,52.7,30.03,West,268,1.0,1.0,83,0.00,,,0.00,Wunderground v.1.15,2013-03-31 19:15:00,
2013-03-31 12:20:00,57.6,52.1,30.04,NW,313,1.0,1.0,82,0.00,,,0.00,Wunderground v.1.15,2013-03-31 19:20:00,
2013-03-31 12:30:00,57.0,52.2,30.04,East,81,1.0,1.0,84,0.00,,,0.00,Wunderground v.1.15,2013-03-31 19:30:00,
2013-03-31 12:35:00,57.1,52.3,30.04,West,265,1.0,1.0,84,0.00,,,0.00,Wunderground v.1.15,2013-03-31 19:35:00,
2013-03-31 12:40:00,56.9,52.4,30.03,NW,314,1.0,1.0,85,0.00,,,0.00,Wunderground v.1.15,2013-03-31 19:40:00,
2013-03-31 12:45:00,56.8,52.3,30.03,East,98,1.0,1.0,85,0.00,,,0.00,Wunderground v.1.15,2013-03-31 19:45:00,
2013-03-31 12:55:00,56.7,51.9,30.03,North,4,1.0,2.0,84,0.00,,,0.00,Wunderground v.1.15,2013-03-31 19:55:00,
2013-03-31 13:00:00,56.8,52.3,30.04,North,354,1.0,1.0,85,0.00,,,0.00,Wunderground v.1.15,2013-03-31 20:00:00,
2013-03-31 13:05:00,56.8,52.0,30.04,SW,223,1.0,6.0,84,0.00,,,0.00,Wunderground v.1.15,2013-03-31 20:05:00,
2013-03-31 13:10:00,56.9,52.4,30.04,West,262,1.0,6.0,85,0.00,,,0.00,Wunderground v.1.15,2013-03-31 20:10:00,
2013-03-31 13:20:00,56.6,52.1,30.04,West,264,1.0,1.0,85,0.00,,,0.00,Wunderground v.1.15,2013-03-31 20:20:00,
2013-03-31 13:25:00,56.4,51.9,30.04,West,276,1.0,2.0,85,0.00,,,0.00,Wunderground v.1.15,2013-03-31 20:25:00,
2013-03-31 13:30:00,56.0,51.9,30.04,West,262,1.0,1.0,86,0.00,,,0.00,Wunderground v.1.15,2013-03-31 20:30:00,
2013-03-31 13:40:00,55.7,51.6,30.04,SW,231,1.0,1.0,86,0.00,,,0.00,Wunderground v.1.15,2013-03-31 20:40:00,
2013-03-31 13:45:00,55.7,51.6,30.04,NW,312,0.0,6.0,86,0.00,,,0.00,Wunderground v.1.15,2013-03-31 20:45:00,
2013-03-31 13:50:00,55.7,51.6,30.04,SW,222,0.0,6.0,86,0.00,,,0.00,Wunderground v.1.15,2013-03-31 20:50:00,
2013-03-31 14:00:00,55.3,51.5,30.04,East,83,2.0,6.0,87,0.00,,,0.00,Wunderground v.1.15,2013-03-31 21:00:00,
2013-03-31 14:05:00,55.1,51.3,30.04,SW,224,1.0,6.0,87,0.00,,,0.00,Wunderground v.1.15,2013-03-31 21:05:00,
2013-03-31 14:10:00,55.0,51.5,30.04,SW,233,1.0,1.0,88,0.00,,,0.00,Wunderground v.1.15,2013-03-31 21:10:00,
2013-03-31 14:20:00,55.0,51.5,30.04,NE,53,0.0,6.0,88,0.00,,,0.00,Wunderground v.1.15,2013-03-31 21:20:00,
2013-03-31 14:25:00,55.1,51.6,30.04,NE,42,0.0,6.0,88,0.00,,,0.00,Wunderground v.1.15,2013-03-31 21:25:00,
2013-03-31 14:30:00,55.1,51.6,30.04,SSW,212,0.0,6.0,88,0.00,,,0.00,Wunderground v.1.15,2013-03-31 21:30:00,
2013-03-31 14:35:00,55.1,51.6,30.04,NE,40,0.0,6.0,88,0.00,,,0.00,Wunderground v.1.15,2013-03-31 21:35:00,
2013-03-31 14:45:00,55.0,51.5,30.04,West,280,1.0,6.0,88,0.00,,,0.00,Wunderground v.1.15,2013-03-31 21:45:00,
2013-03-31 14:50:00,54.9,51.4,30.04,NNE,12,1.0,1.0,88,0.00,,,0.00,Wunderground v.1.15,2013-03-31 21:50:00,
2013-03-31 14:55:00,54.8,51.3,30.04,ENE,66,1.0,5.0,88,0.00,,,0.00,Wunderground v.1.15,2013-03-31 21:55:00,
2013-03-31 15:05:00,54.6,51.4,30.04,NE,45,1.0,6.0,89,0.00,,,0.00,Wunderground v.1.15,2013-03-31 22:05:00,
2013-03-31 15:10:00,54.5,51.6,30.04,NW,308,0.0,6.0,90,0.00,,,0.00,Wunderground v.1.15,2013-03-31 22:10:00,
2013-03-31 15:15:00,54.6,51.7,30.04,North,9,0.0,6.0,90,0.00,,,0.00,Wunderground v.1.15,2013-03-31 22:15:00,
2013-03-31 15:25:00,54.3,51.4,30.03,WNW,295,0.0,6.0,90,0.00,,,0.00,Wunderground v.1.15,2013-03-31 22:25:00,
2013-03-31 15:30:00,54.3,51.4,30.04,NNE,21,0.0,6.0,90,0.00,,,0.00,Wunderground v.1.15,2013-03-31 22:30:00,
2013-03-31 15:35:00,54.2,51.6,30.04,NE,48,0.0,6.0,91,0.00,,,0.00,Wunderground v.1.15,2013-03-31 22:35:00,
2013-03-31 15:45:00,54.0,51.4,30.03,ENE,63,0.0,6.0,91,0.00,,,0.00,Wunderground v.1.15,2013-03-31 22:45:00,
2013-03-31 15:50:00,53.9,51.6,30.03,ENE,72,0.0,6.0,92,0.00,,,0.00,Wunderground v.1.15,2013-03-31 22:50:00,
2013-03-31 15:55:00,53.9,51.6,30.03,NE,52,0.0,6.0,92,0.00,,,0.00,Wunderground v.1.15,2013-03-31 22:55:00,
2013-03-31 16:05:00,53.7,51.4,30.03,ENE,72,0.0,6.0,92,0.00,,,0.00,Wunderground v.1.15,2013-03-31 23:05:00,
2013-03-31 16:10:00,53.6,51.3,30.03,NE,49,1.0,6.0,92,0.00,,,0.00,Wunderground v.1.15,2013-03-31 23:10:00,
2013-03-31 16:15:00,53.5,51.5,30.03,WNW,286,1.0,6.0,93,0.00,,,0.00,Wunderground v.1.15,2013-03-31 23:15:00,
2013-03-31 16:20:00,53.3,51.3,30.03,WNW,285,0.0,6.0,93,0.00,,,0.00,Wunderground v.1.15,2013-03-31 23:20:00,
2013-03-31 16:30:00,53.3,51.3,30.03,NNE,23,0.0,6.0,93,0.00,,,0.00,Wunderground v.1.15,2013-03-31 23:30:00,
2013-03-31 16:35:00,53.3,51.3,30.03,NNE,23,0.0,6.0,93,0.00,,,0.00,Wunderground v.1.15,2013-03-31 23:35:00,
2013-03-31 16:40:00,53.3,51.3,30.03,NE,35,0.0,6.0,93,0.00,,,0.00,Wunderground v.1.15,2013-03-31 23:40:00,
2013-03-31 16:50:00,53.3,51.3,30.03,NNE,27,1.0,1.0,93,0.00,,,0.00,Wunderground v.1.15,2013-03-31 23:50:00,
2013-03-31 16:55:00,53.3,51.3,30.03,NNE,27,1.0,6.0,93,0.00,,,0.00,Wunderground v.1.15,2013-03-31 23:55:00,
2013-03-31 17:00:00,53.3,51.3,30.03,NW,309,0.0,6.0,93,0.00,,,0.00,Wunderground v.1.15,2013-04-01 00:00:00,
2013-03-31 17:05:00,53.3,51.3,30.04,NE,41,0.0,6.0,93,0.00,,,0.00,Wunderground v.1.15,2013-04-01 00:05:00,
2013-03-31 17:15:00,53.4,51.4,30.03,NE,41,0.0,6.0,93,0.00,,,0.00,Wunderground v.1.15,2013-04-01 00:15:00,
2013-03-31 17:20:00,53.3,51.3,30.03,NE,37,0.0,6.0,93,0.00,,,0.00,Wunderground v.1.15,2013-04-01 00:20:00,
2013-03-31 17:30:00,53.3,51.3,30.03,NE,37,0.0,6.0,93,0.00,,,0.00,Wunderground v.1.15,2013-04-01 00:30:00,
2013-03-31 17:35:00,53.3,51.3,30.03,NNE,33,1.0,6.0,93,0.00,,,0.00,Wunderground v.1.15,2013-04-01 00:35:00,
2013-03-31 17:40:00,53.3,51.3,30.03,NE,46,1.0,6.0,93,0.00,,,0.00,Wunderground v.1.15,2013-04-01 00:40:00,
2013-03-31 17:45:00,53.3,51.6,30.03,ENE,67,1.0,6.0,94,0.00,,,0.00,Wunderground v.1.15,2013-04-01 00:45:00,
2013-03-31 17:55:00,53.3,51.6,30.03,NE,47,1.0,6.0,94,0.00,,,0.00,Wunderground v.1.15,2013-04-01 00:55:00,
2013-03-31 18:00:00,53.3,51.6,30.03,NNE,29,1.0,6.0,94,0.00,,,0.00,Wunderground v.1.15,2013-04-01 01:00:00,
2013-03-31 18:05:00,53.3,51.3,30.03,NNE,29,1.0,6.0,93,0.00,,,0.00,Wunderground v.1.15,2013-04-01 01:05:00,
2013-03-31 18:15:00,53.3,51.6,30.03,NNE,30,0.0,6.0,94,0.00,,,0.00,Wunderground v.1.15,2013-04-01 01:15:00,
2013-03-31 18:20:00,53.3,51.6,30.03,NE,48,1.0,1.0,94,0.00,,,0.00,Wunderground v.1.15,2013-04-01 01:20:00,
2013-03-31 18:25:00,53.4,51.7,30.03,NE,48,1.0,6.0,94,0.00,,,0.00,Wunderground v.1.15,2013-04-01 01:25:00,
2013-03-31 18:35:00,53.5,51.8,30.03,NE,48,0.0,6.0,94,0.00,,,0.00,Wunderground v.1.15,2013-04-01 01:35:00,
2013-03-31 18:40:00,53.4,51.7,30.03,NE,48,0.0,6.0,94,0.00,,,0.00,Wunderground v.1.15,2013-04-01 01:40:00,
2013-03-31 18:45:00,53.4,51.7,30.03,NE,48,0.0,6.0,94,0.00,,,0.00,Wunderground v.1.15,2013-04-01 01:45:00,
2013-03-31 18:50:00,53.4,51.7,30.03,NE,48,0.0,6.0,94,0.00,,,0.00,Wunderground v.1.15,2013-04-01 01:50:00,
2013-03-31 19:00:00,53.4,51.7,30.03,NE,48,0.0,6.0,94,0.00,,,0.00,Wunderground v.1.15,2013-04-01 02:00:00,
2013-03-31 19:05:00,53.4,51.7,30.03,NE,48,0.0,6.0,94,0.00,,,0.00,Wunderground v.1.15,2013-04-01 02:05:00,
2013-03-31 19:10:00,53.4,51.7,30.03,NE,48,0.0,6.0,94,0.00,,,0.00,Wunderground v.1.15,2013-04-01 02:10:00,
2013-03-31 19:20:00,53.3,51.6,30.03,NE,48,0.0,6.0,94,0.00,,,0.00,Wunderground v.1.15,2013-04-01 02:20:00,
2013-03-31 19:25:00,53.3,51.3,30.03,NE,48,0.0,6.0,93,0.00,,,0.00,Wunderground v.1.15,2013-04-01 02:25:00,
2013-03-31 19:30:00,53.2,51.5,30.03,NE,48,0.0,6.0,94,0.00,,,0.00,Wunderground v.1.15,2013-04-01 02:30:00,
2013-03-31 19:40:00,53.1,51.4,30.03,NE,48,0.0,6.0,94,0.00,,,0.00,Wunderground v.1.15,2013-04-01 02:40:00,
2013-03-31 19:45:00,53.1,51.4,30.03,NE,48,0.0,6.0,94,0.00,,,0.00,Wunderground v.1.15,2013-04-01 02:45:00,
2013-03-31 19:50:00,53.0,51.3,30.03,NE,48,1.0,1.0,94,0.00,,,0.00,Wunderground v.1.15,2013-04-01 02:50:00,
2013-03-31 19:55:00,53.0,51.3,30.03,NE,48,0.0,6.0,94,0.00,,,0.00,Wunderground v.1.15,2013-04-01 02:55:00,
2013-03-31 20:05:00,52.9,51.2,30.03,NE,48,0.0,6.0,94,0.00,,,0.00,Wunderground v.1.15,2013-04-01 03:05:00,
2013-03-31 20:10:00,52.9,51.2,30.03,NE,48,0.0,6.0,94,0.00,,,0.00,Wunderground v.1.15,2013-04-01 03:10:00,
2013-03-31 20:15:00,52.8,51.1,30.03,NE,48,0.0,6.0,94,0.00,,,0.00,Wunderground v.1.15,2013-04-01 03:15:00,
2013-03-31 20:25:00,52.7,51.0,30.03,NE,48,0.0,6.0,94,0.00,,,0.00,Wunderground v.1.15,2013-04-01 03:25:00,
2013-03-31 20:30:00,52.7,51.0,30.03,NE,48,0.0,6.0,94,0.00,,,0.00,Wunderground v.1.15,2013-04-01 03:30:00,
2013-03-31 20:35:00,52.6,50.9,30.04,NE,48,0.0,6.0,94,0.00,,,0.00,Wunderground v.1.15,2013-04-01 03:35:00,
2013-03-31 20:40:00,52.6,50.9,30.03,NE,48,0.0,6.0,94,0.00,,,0.00,Wunderground v.1.15,2013-04-01 03:40:00,
2013-03-31 20:50:00,52.6,51.2,30.04,NE,48,0.0,6.0,95,0.00,,,0.00,Wunderground v.1.15,2013-04-01 03:50:00,
2013-03-31 20:55:00,52.6,51.2,30.04,NE,48,0.0,6.0,95,0.00,,,0.00,Wunderground v.1.15,2013-04-01 03:55:00,
2013-03-31 21:00:00,52.5,51.1,30.04,NE,48,0.0,6.0,95,0.00,,,0.00,Wunderground v.1.15,2013-04-01 04:00:00,
2013-03-31 21:05:00,52.5,51.1,30.04,NE,48,0.0,6.0,95,0.00,,,0.00,Wunderground v.1.15,2013-04-01 04:05:00,
2013-03-31 21:10:00,52.4,51.0,30.04,NE,48,0.0,6.0,95,0.00,,,0.00,Wunderground v.1.15,2013-04-01 04:10:00,
2013-03-31 21:15:00,52.4,51.0,30.04,NE,48,0.0,6.0,95,0.00,,,0.00,Wunderground v.1.15,2013-04-01 04:15:00,
2013-03-31 21:20:00,52.4,51.0,30.05,NE,48,0.0,6.0,95,0.00,,,0.00,Wunderground v.1.15,2013-04-01 04:20:00,
2013-03-31 21:25:00,52.3,50.9,30.05,NE,48,0.0,6.0,95,0.00,,,0.00,Wunderground v.1.15,2013-04-01 04:25:00,
2013-03-31 21:30:00,52.3,50.9,30.05,NE,48,0.0,6.0,95,0.00,,,0.00,Wunderground v.1.15,2013-04-01 04:30:00,
2013-03-31 21:35:00,52.3,50.9,30.04,NE,48,0.0,6.0,95,0.00,,,0.00,Wunderground v.1.15,2013-04-01 04:35:00,
2013-03-31 21:40:00,52.2,50.8,30.05,NE,48,0.0,6.0,95,0.00,,,0.00,Wunderground v.1.15,2013-04-01 04:40:00,
2013-03-31 21:50:00,52.2,50.8,30.05,NE,48,0.0,6.0,95,0.00,,,0.00,Wunderground v.1.15,2013-04-01 04:50:00,
2013-03-31 21:55:00,52.2,50.8,30.05,NE,48,0.0,6.0,95,0.00,,,0.00,Wunderground v.1.15,2013-04-01 04:55:00,
2013-03-31 22:00:00,52.1,50.7,30.05,NE,48,0.0,6.0,95,0.00,,,0.00,Wunderground v.1.15,2013-04-01 05:00:00,
2013-03-31 22:10:00,52.1,50.7,30.06,NE,41,1.0,1.0,95,0.00,,,0.00,Wunderground v.1.15,2013-04-01 05:10:00,
2013-03-31 22:15:00,52.0,50.9,30.05,NE,41,0.0,6.0,96,0.00,,,0.00,Wunderground v.1.15,2013-04-01 05:15:00,
2013-03-31 22:20:00,52.0,50.9,30.06,NE,41,0.0,6.0,96,0.00,,,0.00,Wunderground v.1.15,2013-04-01 05:20:00,
2013-03-31 22:25:00,51.9,50.8,30.06,NE,41,0.0,6.0,96,0.00,,,0.00,Wunderground v.1.15,2013-04-01 05:25:00,
2013-03-31 22:35:00,51.9,50.8,30.06,NE,41,1.0,6.0,96,0.00,,,0.00,Wunderground v.1.15,2013-04-01 05:35:00,
2013-03-31 22:40:00,51.9,50.8,30.06,NE,41,1.0,1.0,96,0.00,,,0.00,Wunderground v.1.15,2013-04-01 05:40:00,
2013-03-31 22:50:00,51.8,50.7,30.05,NE,41,0.0,6.0,96,0.00,,,0.00,Wunderground v.1.15,2013-04-01 05:50:00,
2013-03-31 22:55:00,51.8,50.7,30.06,NE,41,0.0,6.0,96,0.00,,,0.00,Wunderground v.1.15,2013-04-01 05:55:00,
2013-03-31 23:00:00,51.8,50.7,30.06,NE,41,0.0,6.0,96,0.00,,,0.00,Wunderground v.1.15,2013-04-01 06:00:00,
2013-03-31 23:05:00,51.8,50.7,30.05,NE,41,0.0,6.0,96,0.00,,,0.00,Wunderground v.1.15,2013-04-01 06:05:00,
2013-03-31 23:15:00,51.7,50.6,30.05,WNW,300,0.0,6.0,96,0.00,,,0.00,Wunderground v.1.15,2013-04-01 06:15:00,
2013-03-31 23:20:00,51.8,50.7,30.05,NNE,33,0.0,6.0,96,0.00,,,0.00,Wunderground v.1.15,2013-04-01 06:20:00,
2013-03-31 23:25:00,51.7,50.6,30.05,ENE,62,1.0,6.0,96,0.00,,,0.00,Wunderground v.1.15,2013-04-01 06:25:00,
2013-03-31 23:35:00,51.6,50.5,30.05,ENE,61,0.0,6.0,96,0.00,,,0.00,Wunderground v.1.15,2013-04-01 06:35:00,
2013-03-31 23:40:00,51.6,50.5,30.05,NW,318,0.0,6.0,96,0.00,,,0.00,Wunderground v.1.15,2013-04-01 06:40:00,
2013-03-31 23:45:00,51.5,50.4,30.05,NW,316,0.0,6.0,96,0.00,,,0.00,Wunderground v.1.15,2013-04-01 06:45:00,
2013-03-31 23:55:00,51.5,50.4,30.05,NE,45,0.0,6.0,96,0.00,,,0.00,Wunderground v.1.15,2013-04-01 06:55:00,